Weather History for LEPA - January, 2012

Change the Weather History Date:

Monday, January 23, 2012

  Actual Average Record
Temperature  
Mean Temperature 51 °F -  
Max Temperature 65 °F 57 °F 68 °F (2009)
Min Temperature 37 °F 39 °F 28 °F (2006)
Degree Days  
Heating Degree Days 14    
Growing Degree Days 1 (Base 50)    
Moisture  
Dew Point 43 °F    
Average Humidity 79    
Maximum Humidity 100    
Minimum Humidity 41    
Precipitation  
Precipitation 0.00 in 0.05 in - ()
Sea Level Pressure  
Sea Level Pressure 30.06 in    
Wind  
Wind Speed 2 mph ()    
Max Wind Speed 14 mph    
Max Gust Speed -    
Visibility 7.4 miles    
Events      
Averages and records for this station are not official NWS values.
T = Trace of Precipitation, MM = Missing Value Source: Averaged Metar Reports

Daily Weather History Graph

Daily Weather History Graph

Search for Another Location

Airport or City:

Trip Planner

Search our weather history database for the weather conditions in past years. The results will help you decide how hot, cold, wet, or windy it might be!

Date:

Astronomy

Jan. 23, 2012 Rise Set
Actual Time 8:04 AM CET 5:57 PM CET
Civil Twilight 7:35 AM CET 6:26 PM CET
Nautical Twilight 7:02 AM CET 6:59 PM CET
Astronomical Twilight 6:30 AM CET 7:31 PM CET
Moon 7:50 AM CET (1/23) 6:28 PM CET (1/23)
Length of Visible Light 10h 51m
Length of Day
9h 53m
New Moon, 0% of the Moon is Illuminated
Jan 23
New Moon
Jan 31
First Quarter
Feb 7
Full
Feb 14
Last Quarter
Feb 21
New

Hourly Weather History & Observations

Time (CET) Temp. Dew Point Humidity Pressure Visibility Wind Dir Wind Speed Gust Speed Precip Events Conditions
12:00 AM 42.8 °F 42.8 °F 100% 30.12 in - Calm Calm - N/A   Clear
12:30 AM 41.0 °F 39.2 °F 93% 30.12 in - Calm Calm - N/A   Clear
1:00 AM 40 °F 38 °F 92% 30.12 in 9 mi East 1.2 mph - -  
1:00 AM 39.2 °F 39.2 °F 100% 30.09 in - Calm Calm - N/A   Clear
1:30 AM 39.2 °F 39.2 °F 100% 30.09 in - NE 2.3 mph - N/A   Clear
2:00 AM 39.2 °F 37.4 °F 93% 30.09 in - East 1.2 mph - N/A   Clear
2:30 AM 39.2 °F 37.4 °F 93% 30.09 in - Variable 1.2 mph - N/A   Clear
3:00 AM 41.0 °F 41.0 °F 100% 30.09 in - Variable 1.2 mph - N/A   Clear
3:30 AM 39.2 °F 37.4 °F 93% 30.09 in - NE 2.3 mph - N/A   Clear
4:00 AM 39.2 °F 37.4 °F 93% 30.06 in - NE 2.3 mph - N/A   Clear
4:30 AM 39.2 °F 39.2 °F 100% 30.06 in - Calm Calm - N/A   Clear
5:00 AM 41.0 °F 39.2 °F 93% 30.06 in - Calm Calm - N/A   Clear
5:30 AM 39.2 °F 39.2 °F 100% 30.06 in - North 1.2 mph - N/A   Clear
6:00 AM 39.2 °F 39.2 °F 100% 30.06 in - Calm Calm - N/A   Clear
6:30 AM 39.2 °F 39.2 °F 100% 30.06 in - Calm Calm - N/A   Clear
7:00 AM 40 °F 40 °F 99% 30.08 in 9 mi Calm Calm - -   Clear
7:00 AM 41.0 °F 39.2 °F 93% 30.06 in - Calm Calm - N/A   Clear
7:30 AM 41.0 °F 39.2 °F 93% 30.06 in - Calm Calm - N/A   Clear
8:00 AM 39.2 °F 39.2 °F 100% 30.06 in 6.2 mi Calm Calm - N/A   Partly Cloudy
8:30 AM 41.0 °F 39.2 °F 93% 30.06 in 6.2 mi Variable 1.2 mph - N/A   Partly Cloudy
9:00 AM 42.8 °F 41.0 °F 93% 30.06 in 6.2 mi Calm Calm - N/A   Partly Cloudy
9:30 AM 46.4 °F 46.4 °F 100% 30.06 in 6.2 mi Calm Calm - N/A   Partly Cloudy
10:00 AM 50.0 °F 48.2 °F 94% 30.06 in 6.2 mi Variable 2.3 mph - N/A   Partly Cloudy
10:30 AM 53.6 °F 50.0 °F 88% 30.09 in 6.2 mi Calm Calm - N/A   Partly Cloudy
11:00 AM 57.2 °F 50.0 °F 77% 30.09 in 6.2 mi Calm Calm - N/A   Partly Cloudy
11:30 AM 59.0 °F 50.0 °F 72% 30.09 in - SSW 3.5 mph - N/A   Clear
12:00 PM 60.8 °F 50.0 °F 68% 30.06 in 6.2 mi SSW 5.8 mph - N/A   Partly Cloudy
12:30 PM 62.6 °F 48.2 °F 59% 30.06 in 6.2 mi SSW 6.9 mph - N/A   Partly Cloudy
1:00 PM 64 °F 46 °F 41% 30.06 in 19 mi West 6.9 mph - -   Scattered Clouds
1:00 PM 64.4 °F 44.6 °F 49% 30.06 in 6.2 mi WSW 6.9 mph - N/A   Partly Cloudy
1:30 PM 64.4 °F 44.6 °F 49% 30.04 in 6.2 mi WNW 10.4 mph - N/A   Partly Cloudy
2:00 PM 64.4 °F 44.6 °F 49% 30.04 in 6.2 mi WNW 10.4 mph - N/A   Partly Cloudy
2:30 PM 64.4 °F 44.6 °F 49% 30.04 in 6.2 mi WNW 11.5 mph - N/A   Partly Cloudy
3:00 PM 64.4 °F 44.6 °F 49% 30.01 in 6.2 mi WNW 12.7 mph - N/A   Partly Cloudy
3:30 PM 64.4 °F 44.6 °F 49% 30.01 in 6.2 mi WNW 12.7 mph - N/A   Partly Cloudy
4:00 PM 64.4 °F 44.6 °F 49% 30.01 in 6.2 mi WNW 13.8 mph - N/A   Partly Cloudy
4:30 PM 62.6 °F 46.4 °F 55% 30.01 in - WNW 11.5 mph - N/A   Clear
5:00 PM 60.8 °F 44.6 °F 55% 30.01 in - WNW 9.2 mph - N/A   Clear
5:30 PM 59.0 °F 44.6 °F 59% 30.01 in 6.2 mi WNW 10.4 mph - N/A   Partly Cloudy
6:00 PM 57.2 °F 46.4 °F 67% 30.04 in - WNW 9.2 mph - N/A   Clear
6:30 PM 57.2 °F 44.6 °F 63% 30.04 in - East 1.2 mph - N/A   Clear
7:00 PM 56 °F 44 °F 53% 30.06 in 12 mi NNW 8.1 mph - -   Clear
7:00 PM 57.2 °F 42.8 °F 59% 30.04 in - North 3.5 mph - N/A   Clear
7:30 PM 55.4 °F 44.6 °F 67% 30.06 in - NNW 5.8 mph - N/A   Clear
8:00 PM 53.6 °F 44.6 °F 72% 30.06 in - Variable 1.2 mph - N/A   Clear
8:30 PM 51.8 °F 42.8 °F 71% 30.06 in - NE 1.2 mph - N/A   Clear
9:00 PM 48.2 °F 44.6 °F 87% 30.06 in - Variable 2.3 mph - N/A   Clear
9:30 PM 46.4 °F 41.0 °F 81% 30.09 in - Calm Calm - N/A   Clear
10:00 PM 44.6 °F 41.0 °F 87% 30.09 in - Calm Calm - N/A   Clear
10:30 PM 42.8 °F 41.0 °F 93% 30.09 in - Calm Calm - N/A   Clear
11:00 PM 42.8 °F 41.0 °F 93% 30.09 in - Variable 1.2 mph - N/A   Clear
11:30 PM 42.8 °F 41.0 °F 93% 30.12 in - Calm Calm - N/A   Clear